This is the latest recevied weather packets stored in our database for station/object NUUKSIO. If no packets are shown the sender has not sent any weather packets the latest 10 day(s).
| Time | Temp. | Humidity | Pressure | Rain* | Wind** | Luminosity | Snow |
|---|---|---|---|---|---|---|---|
| 1788571487 | 7.22° C | 100% | 994.4 hPa | 0 mm | - | - | - |
| 1788570289 | 7.78° C | 100% | 994.4 hPa | 0 mm | - | - | - |
| 1788568878 | 8.33° C | 100% | 994.4 hPa | 0 mm | - | - | - |
| 1788567890 | 8.89° C | 100% | 994.4 hPa | 0 mm | - | - | - |
| 1788566688 | 9.44° C | 100% | 994.4 hPa | 0 mm | - | - | - |
| 1788565488 | 10° C | 100% | 994.6 hPa | 0 mm | - | - | - |
| 1788564288 | 9.44° C | 100% | 994.8 hPa | 0 mm | - | - | - |
| 1788563087 | 9.44° C | 100% | 995 hPa | 0 mm | - | - | - |
| 1788561888 | 9.44° C | 100% | 995.1 hPa | 0 mm | - | - | - |
| 1788560688 | 10° C | 100% | 995.2 hPa | 0 mm | - | - | - |
| 1788559277 | 10° C | 100% | 995.3 hPa | 0 mm | - | - | - |
| 1788558288 | 10.56° C | 100% | 995.5 hPa | 0 mm | - | - | - |
| 1788557087 | 10.56° C | 100% | 995.6 hPa | 0 mm | - | - | - |
| 1788555677 | 11.11° C | 100% | 995.7 hPa | 0 mm | - | - | - |
| 1788554687 | 11.11° C | 100% | 995.8 hPa | 0 mm | - | - | - |
| 1788553277 | 11.67° C | 100% | 996.1 hPa | 0 mm | - | - | - |
| 1788552289 | 11.67° C | 100% | 996.1 hPa | 0 mm | - | - | - |
| 1788551088 | 11.67° C | 99% | 996.3 hPa | 0 mm | - | - | - |
| 1788549887 | 11.67° C | 99% | 996.4 hPa | 0 mm | - | - | - |
| 1788548687 | 11.11° C | 100% | 996.6 hPa | 0 mm | - | - | - |
| 1788547277 | 11.67° C | 98% | 997 hPa | 0 mm | - | - | - |
| 1788546288 | 11.67° C | 98% | 997 hPa | 0 mm | - | - | - |
| 1788543886 | 11.67° C | 95% | 997.2 hPa | 0 mm | - | - | - |
| 1788542686 | 12.78° C | 91% | 997.1 hPa | 0 mm | - | - | - |
| 1788541486 | 13.33° C | 89% | 997.2 hPa | 0 mm | - | - | - |
* Rain latest hour (hover to see other rain measurements)
** Current wind speed in m/s (hover to see current wind gust speed)